7L2IWN-13 Weather Reports


time (UTC)temp
F
wind
direction
speed
knots
gust
knots
rain 1hr
in
rain 24hr
in
rain mn
in
humidity
%
barometer
mb
20260904181204 67 173 1.7 2.6 0.04 0.30 0.10 99 1011.5
20260904180003 67 320 4.3 5.2 0.03 0.29 0.09 99 1011.3
20260904174803 66 119 0.9 1.7 0.03 0.28 0.08 99 1010.9
20260904173602 66 117 0.9 1.7 0.03 0.27 0.07 99 1011.0
20260904172403 67 80 1.7 2.6 0.03 0.26 0.06 99 1011.1
20260904171203 67 40 2.6 5.2 0.04 0.26 0.06 99 1010.8
20260904170001 67 24 4.3 5.2 0.04 0.26 0.06 99 1011.1
20260904164802 67 36 1.7 4.3 0.03 0.25 0.05 99 1011.3
20260904163602 67 41 2.6 4.3 0.03 0.24 0.04 99 1011.5
20260904162404 67 81 0.0 0.9 0.03 0.24 0.04 99 1011.4
20260904161202 67 110 1.7 2.6 0.02 0.22 0.02 99 1011.4
20260904160002 67 103 0.0 0.9 0.00 0.22 0.02 99 1011.5
20260904154802 67 119 1.7 2.6 0.00 0.22 0.02 99 1011.1
20260904153604 67 33 0.0 0.0 0.00 0.21 0.01 99 1011.8
20260904152403 67 101 0.0 0.0 0.00 0.21 0.01 99 1011.5
20260904151202 67 160 1.7 2.6 0.00 0.21 0.00 99 1011.4
20260904150003 67 351 0.9 1.7 0.01 0.21 0.21 99 1011.2
20260904144801 67 330 1.7 1.7 0.01 0.21 0.21 99 1011.4
20260904143603 67 104 0.9 0.9 0.02 0.21 0.21 99 1011.4
20260904142402 67 45 0.9 1.7 0.04 0.21 0.21 99 1011.6
20260904141203 67 308 0.9 0.9 0.05 0.20 0.20 99 1011.7
20260904140003 67 339 1.7 1.7 0.08 0.20 0.20 99 1011.8
20260904134803 67 103 1.7 1.7 0.09 0.20 0.20 99 1011.6
20260904133602 67 109 0.9 1.7 0.09 0.19 0.19 99 1012.4
20260904132401 68 27 0.0 0.9 0.09 0.17 0.17 99 1012.3
20260904131203 68 90 0.9 0.9 0.07 0.15 0.15 99 1012.0
20260904130003 68 118 1.7 1.7 0.05 0.12 0.12 99 1011.6
20260904124802 68 336 0.9 0.9 0.04 0.11 0.11 99 1011.6
20260904123603 69 35 0.9 2.6 0.04 0.10 0.10 99 1011.4
20260904122403 71 64 1.7 2.6 0.02 0.08 0.08 97 1011.6
20260904121202 71 64 1.7 2.6 0.03 0.08 0.08 97 1012.1
20260904120001 69 40 2.6 2.6 0.02 0.07 0.07 99 1011.9
20260904114801 69 40 2.6 2.6 0.02 0.07 0.07 99 1012.1
20260904113603 70 116 0.0 1.7 0.02 0.06 0.06 99 1012.7
20260904112401 70 45 0.9 0.9 0.03 0.06 0.06 99 1012.4
20260904111203 71 99 0.0 0.9 0.02 0.05 0.05 99 1012.6
20260904110002 72 147 2.6 4.3 0.02 0.05 0.05 95 1012.3
20260904104802 72 173 4.3 7.0 0.02 0.05 0.05 99 1012.1
20260904103601 71 295 6.1 7.8 0.01 0.04 0.04 99 1011.6
20260904102402 72 192 6.1 7.8 0.00 0.03 0.03 99 1011.6
20260904101203 71 27 1.7 4.3 0.00 0.03 0.03 99 1011.4
20260904100003 71 300 0.0 0.0 0.00 0.04 0.03 99 1011.1
20260904094801 71 239 0.9 1.7 0.00 0.04 0.03 99 1010.8
20260904093603 72 255 0.9 1.7 0.00 0.04 0.03 99 1010.7
20260904092402 71 113 2.6 6.1 0.00 0.04 0.03 99 1011.3
20260904091203 71 124 1.7 1.7 0.00 0.04 0.03 99 1011.5
20260904090002 71 138 0.9 1.7 0.00 0.04 0.03 99 1011.6
20260904084802 71 155 4.3 6.1 0.00 0.04 0.03 99 1011.2
20260904083604 71 284 2.6 5.2 0.00 0.04 0.03 99 1010.9
20260904082403 72 180 1.7 1.7 0.00 0.04 0.03 99 1010.4
20260904081202 72 226 1.7 4.3 0.00 0.04 0.03 99 1011.0
20260904080002 72 285 2.6 4.3 0.00 0.04 0.03 99 1011.1
20260904074803 73 224 2.6 2.6 0.00 0.04 0.03 99 1011.0
20260904073603 72 354 0.9 1.7 0.00 0.04 0.03 99 1010.5
20260904072402 73 165 0.0 1.7 0.00 0.05 0.03 97 1010.5
20260904071202 73 168 1.7 2.6 0.00 0.06 0.03 99 1010.7
20260904070003 75 148 2.6 6.1 0.00 0.11 0.03 91 1010.6
20260904064803 73 240 0.9 6.1 0.00 0.12 0.03 97 1009.9
20260904063604 73 184 1.7 1.7 0.00 0.12 0.03 99 1010.1
20260904062402 74 329 0.0 0.0 0.00 0.12 0.03 99 1010.4
20260904061203 74 175 0.9 2.6 0.00 0.12 0.03 97 1010.3
20260904060003 74 226 4.3 5.2 0.00 0.12 0.03 97 1010.7
20260904054802 75 157 0.9 1.7 0.00 0.12 0.03 95 1010.6
20260904053602 76 88 0.0 0.0 0.00 0.12 0.03 92 1011.0
20260904052404 76 15 0.0 0.9 0.00 0.13 0.03 93 1011.0
20260904051203 76 85 0.0 0.0 0.00 0.13 0.03 90 1010.6
20260904050003 76 227 0.9 2.6 0.00 0.13 0.03 91 1011.0
20260904044803 76 223 1.7 2.6 0.00 0.13 0.03 90 1011.1
20260904043602 76 303 1.7 2.6 0.00 0.14 0.03 90 1010.6
20260904042402 78 34 0.0 0.0 0.00 0.14 0.03 83 1010.7
20260904041203 77 342 1.7 5.2 0.00 0.14 0.03 87 1010.8
20260904040003 77 285 0.9 2.6 0.00 0.14 0.03 84 1010.7
20260904034804 77 120 1.7 2.6 0.00 0.14 0.03 87 1010.6
20260904033603 77 30 0.0 0.0 0.00 0.15 0.03 88 1010.5
20260904032403 76 359 2.6 5.2 0.00 0.15 0.03 91 1010.6
20260904031202 76 40 0.9 0.9 0.01 0.15 0.03 86 1010.9
20260904030003 75 132 0.9 1.7 0.01 0.15 0.03 91 1010.7
20260904024802 75 141 2.6 4.3 0.01 0.15 0.03 94 1010.9
20260904023602 75 104 0.9 1.7 0.01 0.15 0.03 95 1010.9
20260904022402 74 329 2.6 5.2 0.01 0.15 0.03 97 1011.0
20260904021202 69 300 2.6 4.3 0.00 0.14 0.02 99 1011.0
20260904020003 69 300 2.6 4.3 0.00 0.14 0.02 99 1011.9
20260904014803 69 300 2.6 4.3 0.00 0.14 0.02 99 1011.8
20260904013603 69 300 2.6 4.3 0.00 0.14 0.02 99 1011.9
20260904012402 69 300 2.6 4.3 0.00 0.14 0.02 99 1011.9
20260904011201 69 300 2.6 4.3 0.00 0.14 0.02 99 1011.8
20260904010002 69 300 2.6 4.3 0.00 0.14 0.02 99 1011.8
20260904004801 69 300 2.6 4.3 0.00 0.14 0.02 99 1012.1
20260904003601 69 300 2.6 4.3 0.00 0.14 0.02 99 1012.4
20260904002400 69 300 2.6 4.3 0.00 0.14 0.02 99 1012.7
20260904001203 69 300 2.6 4.3 0.00 0.14 0.02 99 1012.6
20260904000004 69 300 2.6 4.3 0.00 0.14 0.02 99 1012.6
20260903234804 69 300 2.6 4.3 0.00 0.14 0.02 99 1012.4
20260903233605 69 300 2.6 4.3 0.00 0.14 0.02 99 1012.4
20260903232404 69 300 2.6 4.3 0.00 0.14 0.02 99 1012.1
20260903231204 69 300 2.6 4.3 0.00 0.14 0.02 99 1012.1
20260903230002 69 300 2.6 4.3 0.00 0.14 0.02 99 1012.0
20260903224802 69 300 2.6 4.3 0.00 0.14 0.02 99 1012.1
20260903223605 69 300 2.6 4.3 0.00 0.14 0.02 99 1012.5
20260903222403 69 300 2.6 4.3 0.00 0.14 0.02 99 1012.5
20260903221203 69 300 2.6 4.3 0.00 0.14 0.02 99 1012.0
20260903220003 69 300 2.6 4.3 0.00 0.14 0.02 99 1012.1
20260903214802 69 300 2.6 4.3 0.00 0.14 0.02 99 1012.0
20260903213603 69 300 2.6 4.3 0.00 0.14 0.02 99 1011.9
20260903212403 69 300 2.6 4.3 0.00 0.14 0.02 99 1011.4
20260903211202 69 300 2.6 4.3 0.00 0.14 0.02 99 1011.2
20260903210002 69 300 2.6 4.3 0.01 0.14 0.02 99 1011.6
20260903204803 69 300 2.6 4.3 0.01 0.14 0.02 99 1011.4
20260903203603 69 300 2.6 4.3 0.01 0.14 0.02 99 1011.3
20260903202402 69 300 2.6 4.3 0.01 0.14 0.02 99 1010.5
20260903201202 69 222 1.7 2.6 0.01 0.14 0.02 99 1010.7
20260903200002 69 98 0.9 1.7 0.00 0.13 0.01 99 1010.6
20260903194803 69 127 1.7 2.6 0.00 0.13 0.01 99 1010.0
20260903193603 69 25 0.9 1.7 0.00 0.13 0.01 99 1010.3
20260903192404 69 159 0.9 1.7 0.00 0.13 0.01 99 1010.9
20260903191203 69 147 2.6 4.3 0.00 0.13 0.01 99 1010.2
20260903190003 69 139 1.7 4.3 0.00 0.13 0.01 99 1009.8
20260903184804 69 5 1.7 1.7 0.00 0.13 0.01 99 1009.6
20260903183603 69 287 0.0 1.7 0.00 0.13 0.01 99 1009.6
20260903182402 69 287 0.9 1.7 0.00 0.13 0.01 99 1009.5